Location: Wyoming Infrared Observatory
(41.0971°N, 105.9765°W)
Time: 16:33:58
(UTC-06:00)

Amateur Radio Satellites - All Passes

Search period start: 01 April 2015 16:03
Search period end: 02 April 2015 16:03
Location: Wyoming Infrared Observatory, 41.0971°N, 105.9765°W

Satellite Date Start Highest point End Downlink Frequencies (MHz)
Time Altitude Azimuth
ITAMSAT 1 01 Apr 16:18:23 16:19:59 11° 273° (W) 16:21:13 435.822/435.867
STARS 01 Apr 16:19:39 16:24:05 88° 283° (WNW) 16:28:30 437.465
AO-7 01 Apr 16:28:39 16:36:58 75° 255° (WSW) 16:45:18 29.400- 29.500
PCSat 01 Apr 16:35:41 16:38:47 15° 321° (NW) 16:41:43 145.827
YUBILEINY 01 Apr 16:39:25 16:43:21 13° 306° (NW) 16:46:39 435.215
HORYU 2 01 Apr 17:10:38 17:12:54 13° 271° (W) 17:14:57 437.375
CUTE-I 01 Apr 17:23:06 17:27:00 22° 64° (ENE) 17:31:03 437.470
Cubesat XI-IV 01 Apr 17:24:16 17:28:16 22° 65° (ENE) 17:32:23 437.490
JAS-2 01 Apr 17:27:11 17:33:44 39° 267° (W) 17:40:47 435.910
KKS-1 01 Apr 17:35:22 17:36:28 11° 298° (WNW) 17:37:19 437.445
M-CUBED/EXP-1 PRIME 01 Apr 17:45:00 17:48:26 20° 96° (E) 17:51:55 437.505
AIST 2 01 Apr 17:55:59 17:57:28 12° 37° (NE) 17:59:06 435.215
MOZHAYETS 4 01 Apr 17:56:18 18:01:00 89° 272° (W) 18:05:38
BEESAT 2 01 Apr 17:59:45 18:03:17 26° 47° (NE) 18:06:48 435.950
RS-15 01 Apr 18:04:15 18:13:49 39° 109° (ESE) 18:23:43 29.354- 29.394
CUBESAT XI-V 01 Apr 18:18:48 18:20:16 12° 87° (E) 18:22:01 437.345
AO-7 01 Apr 18:27:18 18:31:21 13° 275° (W) 18:34:43 29.400- 29.500
SO-50 01 Apr 18:31:35 18:36:11 73° 121° (ESE) 18:40:58 436.795
BEESAT 3 01 Apr 18:32:10 18:36:16 63° 55° (NE) 18:40:18 437.485
AUBIESAT-1 01 Apr 18:51:05 18:55:57 82° 108° (ESE) 19:00:37 437.475
STRAND 1 01 Apr 18:54:07 18:57:00 15° 89° (E) 19:00:05 437.568
GONETS M04 01 Apr 18:54:15 19:02:10 42° 88° (E) 19:10:15
CUTE-I 01 Apr 19:01:32 19:06:45 52° 260° (W) 19:11:59 437.470
Cubesat XI-IV 01 Apr 19:02:51 19:08:04 50° 261° (W) 19:13:17 437.490
PRISM 01 Apr 19:10:09 19:13:48 29° 96° (E) 19:17:27 437.425
M-CUBED/EXP-1 PRIME 01 Apr 19:18:54 19:23:35 48° 293° (WNW) 19:28:06 437.505
AIST 2 01 Apr 19:32:35 19:36:52 78° 59° (ENE) 19:41:03 435.215
BEESAT 2 01 Apr 19:37:46 19:41:27 31° 245° (WSW) 19:45:01 435.950
SEEDS 01 Apr 19:48:15 19:48:40 10° 63° (ENE) 19:49:19 437.485
CUBESAT XI-V 01 Apr 19:53:41 19:58:18 68° 285° (WNW) 20:02:51 437.345
COMPASS 1 01 Apr 20:03:38 20:05:22 13° 65° (ENE) 20:07:18 437.405
HO-68 01 Apr 20:10:09 20:16:47 44° 66° (ENE) 20:23:31 435.675
BEESAT 3 01 Apr 20:12:16 20:13:52 12° 250° (WSW) 20:15:14 437.485
SO-50 01 Apr 20:14:02 20:17:19 18° 321° (NW) 20:20:34 436.795
RS-15 01 Apr 20:14:59 20:25:46 61° 311° (NW) 20:36:46 29.354- 29.394
AUBIESAT-1 01 Apr 20:27:42 20:30:08 14° 303° (WNW) 20:32:19 437.475
STRAND 1 01 Apr 20:31:40 20:36:43 61° 287° (WNW) 20:41:43 437.568
DOVE 4 01 Apr 20:33:24 20:37:07 30° 71° (ENE) 20:40:48 437.250
BRITE-PL 01 Apr 20:33:54 20:38:30 76° 76° (ENE) 20:42:50 437.365/2234.400
CANX-2 01 Apr 20:42:48 20:46:55 54° 74° (ENE) 20:51:06 2200.000
PRISM 01 Apr 20:45:51 20:49:10 23° 292° (WNW) 20:52:23 437.425
GONETS M04 01 Apr 20:50:52 20:59:03 42° 288° (WNW) 21:07:12
CUTE 1.7 + AOD 2 01 Apr 20:56:04 21:00:16 69° 76° (ENE) 21:04:32 437.475
UWE-3 01 Apr 20:58:31 21:00:23 13° 65° (ENE) 21:02:27 435.000/436.395/437.385
ZACube-1 01 Apr 20:59:43 21:00:36 11° 63° (ENE) 21:01:43 437.345
GOMX 1 01 Apr 21:01:46 21:06:11 84° 257° (WSW) 21:10:25 467.674
AAUSAT CUBESAT 2 01 Apr 21:06:18 21:10:21 52° 74° (ENE) 21:14:28 437.432
DANDE 01 Apr 21:09:49 21:12:41 73° 100° (E) 21:15:18 436.750
CUBEBUG 2 01 Apr 21:10:07 21:13:12 21° 68° (ENE) 21:16:24 437.445
SEEDS 01 Apr 21:19:43 21:23:55 76° 258° (WSW) 21:28:11 437.485
CINEMA 3 01 Apr 21:22:11 21:26:14 53° 74° (ENE) 21:30:18 145.822/145.860
UKube-1 01 Apr 21:32:51 21:35:58 20° 66° (ENE) 21:39:11 .
ISS 01 Apr 21:33:52 21:36:56 39° 138° (SE) 21:40:00 145.825
COMPASS 1 01 Apr 21:36:29 21:40:37 59° 259° (W) 21:44:49 437.405
CUSAT 1 01 Apr 21:40:46 21:42:50 19° 286° (WNW) 21:44:49 437.405
DX 1 01 Apr 21:47:25 21:51:11 30° 69° (ENE) 21:55:00 434.975-435.025
PCSat 01 Apr 21:55:03 21:58:04 15° 39° (NE) 22:01:16 145.827
DELFI C3 01 Apr 21:57:48 22:01:50 73° 77° (ENE) 22:05:57 145.870
HO-68 01 Apr 21:58:04 22:04:37 37° 264° (W) 22:11:07 435.675
Oscar 11 01 Apr 21:59:37 22:03:56 82° 257° (WSW) 22:08:18 145.826/435.025
DOVE 4 01 Apr 22:11:40 22:15:00 21° 266° (W) 22:18:10 437.250
FUNcube-1 01 Apr 22:17:56 22:22:04 80° 75° (ENE) 22:26:15 145.935
CANX-2 01 Apr 22:21:15 22:23:17 13° 271° (W) 22:25:05 2200.000
ZACube-1 01 Apr 22:32:21 22:36:28 68° 259° (WSW) 22:40:39 437.345
CUBEBUG 1 01 Apr 22:32:27 22:35:23 18° 66° (ENE) 22:38:27 437.445
UWE-3 01 Apr 22:32:28 22:36:31 54° 260° (W) 22:40:37 435.000/436.395/437.385
RS-15 01 Apr 22:32:33 22:41:10 24° 341° (NNW) 22:49:49 29.354- 29.394
VELOX 1 01 Apr 22:42:11 22:46:27 49° 73° (ENE) 22:50:46 145.980
AAUSAT CUBESAT 2 01 Apr 22:44:25 22:46:24 13° 271° (W) 22:48:10 437.432
CUBEBUG 2 01 Apr 22:46:04 22:49:46 31° 264° (W) 22:53:28 437.445
AISAT 01 Apr 22:48:28 22:52:50 60° 74° (ENE) 22:57:12 437.250
YUBILEINY 01 Apr 22:52:18 22:55:24 12° 53° (NE) 22:59:11 435.215
HUMSAT D 01 Apr 22:52:49 22:56:56 81° 260° (W) 23:01:05 437.325/437.525
50 SAT 01 Apr 22:55:00 22:58:52 69° 76° (ENE) 23:02:49 437.505
UNISAT 6 01 Apr 22:58:27 23:02:17 26° 94° (E) 23:06:15 437.425
CINEMA 3 01 Apr 23:02:15 23:03:54 12° 271° (W) 23:05:19 145.822/145.860
TIGRISAT 01 Apr 23:06:42 23:10:46 31° 95° (E) 23:14:56 435.000
QB50P2 01 Apr 23:07:47 23:10:14 15° 91° (E) 23:12:52 145.880/145.840
UKube-1 01 Apr 23:07:52 23:11:54 37° 262° (W) 23:15:56 .
ISS 01 Apr 23:10:30 23:13:24 28° 335° (NNW) 23:16:17 145.825
BUGSAT 1 01 Apr 23:15:13 23:16:33 12° 89° (E) 23:18:06 437.445
DX 1 01 Apr 23:23:51 23:27:28 24° 266° (W) 23:31:00 434.975-435.025
ESTCUBE 1 01 Apr 23:30:46 23:35:20 85° 76° (ENE) 23:39:55 437.505/2401.250
POPSAT HIP 1 01 Apr 23:34:42 23:38:24 30° 96° (E) 23:42:10 437.405
PCSat 01 Apr 23:36:59 23:42:27 81° 60° (ENE) 23:47:52 145.827
TISAT 1 01 Apr 23:37:44 23:40:41 19° 67° (ENE) 23:43:46 437.305
ANTELSAT 01 Apr 23:38:41 23:43:18 70° 101° (ESE) 23:47:59 437.575/2403.000
NANOSAT C BR1 01 Apr 23:43:29 23:47:26 37° 98° (E) 23:51:23 145.865
POLYITAN 1 01 Apr 23:51:10 23:55:17 47° 99° (E) 23:59:25 437.675
SPROUT 02 Apr 00:01:14 00:05:15 41° 72° (ENE) 00:09:17 437.525
CUBEBUG 1 02 Apr 00:07:17 00:11:29 42° 262° (W) 00:15:40 437.445
VELOX 1 02 Apr 00:20:42 00:23:22 15° 270° (W) 00:25:52 145.980
DUCHIFAT 1 02 Apr 00:25:31 00:29:44 72° 285° (WNW) 00:33:56 145.980
QB50P1 02 Apr 00:25:59 00:30:12 70° 285° (WNW) 00:34:25 145.935-145.965
AISAT 02 Apr 00:27:56 00:29:55 12° 271° (W) 00:31:39 437.250
UNISAT 6 02 Apr 00:35:00 00:39:06 32° 290° (WNW) 00:43:12 437.425
SWISSCUBE 02 Apr 00:35:23 00:38:19 17° 64° (ENE) 00:41:26 437.505
BEESAT 02 Apr 00:37:44 00:40:35 16° 64° (ENE) 00:43:37 436.000
QB50P2 02 Apr 00:42:22 00:46:26 44° 288° (WNW) 00:50:28 145.880/145.840
TIGRISAT 02 Apr 00:43:33 00:47:26 27° 291° (WNW) 00:51:18 435.000
YUBILEINY 02 Apr 00:45:47 00:54:33 65° 78° (ENE) 01:03:14 435.215
BUGSAT 1 02 Apr 00:48:30 00:52:27 52° 286° (WNW) 00:56:22 437.445
ISS 02 Apr 00:48:54 00:50:36 13° 355° (N) 00:52:17 145.825
RS-15 02 Apr 00:50:29 00:58:51 23° 16° (NNE) 01:07:39 29.354- 29.394
POPSAT HIP 1 02 Apr 01:10:47 01:14:12 23° 291° (WNW) 01:17:30 437.405
TISAT 1 02 Apr 01:12:23 01:16:17 36° 263° (W) 01:20:10 437.305
ANTELSAT 02 Apr 01:17:20 01:19:37 13° 296° (WNW) 01:21:42 437.575/2403.000
NANOSAT C BR1 02 Apr 01:20:00 01:23:03 19° 293° (WNW) 01:25:59 145.865
PCSat 02 Apr 01:22:37 01:25:15 13° 256° (WSW) 01:27:34 145.827
SO-50 02 Apr 01:24:21 01:26:29 13° 34° (NE) 01:28:47 436.795
ITUPSAT 1 02 Apr 01:25:10 01:29:44 45° 71° (ENE) 01:34:21 437.325
POLYITAN 1 02 Apr 01:28:15 01:30:53 16° 294° (WNW) 01:33:22 437.675
Oscar 19 02 Apr 01:34:10 01:37:46 19° 91° (E) 01:41:32 437.125/150
SPROUT 02 Apr 01:38:41 01:41:34 17° 269° (W) 01:44:19 437.525
SWISSCUBE 02 Apr 02:11:03 02:15:47 56° 260° (W) 02:20:32 437.505
BEESAT 02 Apr 02:13:18 02:18:01 58° 259° (W) 02:22:46 436.000
Gurwin Techsat 1B 02 Apr 02:22:01 02:24:38 14° 88° (E) 02:27:33 435.225
ISS 02 Apr 02:25:43 02:27:58 17° 15° (NNE) 02:30:13 145.825
O/OREOS (USA 219) 02 Apr 02:41:25 02:43:59 15° 101° (E) 02:46:46 437.305
YUBILEINY 02 Apr 02:43:40 02:50:47 27° 277° (W) 02:57:33 435.215
ITAMSAT 1 02 Apr 02:47:52 02:52:22 30° 95° (E) 02:56:56 435.822/435.867
KKS-1 02 Apr 02:53:53 02:58:17 72° 75° (ENE) 03:02:43 437.445
SO-50 02 Apr 03:03:08 03:08:04 64° 54° (NE) 03:12:57 436.795
RS-15 02 Apr 03:03:39 03:14:45 54° 46° (NE) 03:26:25 29.354- 29.394
ITUPSAT 1 02 Apr 03:04:23 03:07:54 19° 268° (W) 03:11:16 437.325
Oscar 19 02 Apr 03:12:26 03:17:28 51° 288° (WNW) 03:22:27 437.125/150
STARS 02 Apr 03:16:23 03:20:46 80° 74° (ENE) 03:25:10 437.465
HORYU 2 02 Apr 03:25:26 03:26:32 11° 88° (E) 03:27:55 437.375
VERMONT LUNAR 02 Apr 03:39:51 03:42:19 19° 152° (SSE) 03:44:49 437.305
AIST 1 02 Apr 03:44:55 03:49:00 39° 93° (E) 03:53:08
Gurwin Techsat 1B 02 Apr 03:59:57 04:05:15 71° 287° (WNW) 04:10:32 435.225
ISS 02 Apr 04:01:37 04:04:51 66° 34° (NNE) 04:08:03 145.825
AUBIESAT-1 02 Apr 04:07:32 04:09:03 12° 56° (NE) 04:10:48 437.475
O/OREOS (USA 219) 02 Apr 04:18:32 04:23:01 52° 296° (WNW) 04:27:32 437.305
ITAMSAT 1 02 Apr 04:27:16 04:31:54 33° 292° (WNW) 04:36:26 435.822/435.867
AO-7 02 Apr 04:30:37 04:38:07 38° 97° (E) 04:45:44 29.400- 29.500
M-CUBED/EXP-1 PRIME 02 Apr 04:33:28 04:36:47 23° 61° (ENE) 04:40:24 437.505
KKS-1 02 Apr 04:34:55 04:35:32 10° 273° (W) 04:35:52 437.445
JAS-2 02 Apr 04:36:56 04:43:57 40° 93° (E) 04:50:26 435.910
SO-50 02 Apr 04:45:04 04:48:11 16° 250° (WSW) 04:51:04 436.795
PHONESAT 2.4 02 Apr 04:54:04 04:57:08 28° 155° (SSE) 05:00:12 2401.200-2431.200
MOZHAYETS 4 02 Apr 04:57:54 05:02:32 84° 75° (ENE) 05:07:12
HORYU 2 02 Apr 04:59:15 05:03:46 70° 285° (WNW) 05:08:15 437.375
GONETS M04 02 Apr 05:04:51 05:10:58 21° 61° (ENE) 05:17:28
RS-15 02 Apr 05:16:19 05:27:18 50° 248° (WSW) 05:38:33 29.354- 29.394
VERMONT LUNAR 02 Apr 05:16:21 05:19:39 61° 167° (SSE) 05:22:57 437.305
CUBESAT XI-V 02 Apr 05:22:26 05:24:27 13° 63° (ENE) 05:26:41 437.345
AIST 1 02 Apr 05:23:50 05:26:54 18° 290° (WNW) 05:29:49
AUBIESAT-1 02 Apr 05:39:02 05:43:11 80° 253° (WSW) 05:47:43 437.475
ISS 02 Apr 05:39:13 05:40:54 13° 229° (SW) 05:42:29 145.825
PRISM 02 Apr 06:00:42 06:04:00 23° 68° (ENE) 06:07:23 437.425
M-CUBED/EXP-1 PRIME 02 Apr 06:07:43 06:11:29 34° 260° (W) 06:15:33 437.505
STRAND 1 02 Apr 06:09:37 06:13:36 24° 66° (ENE) 06:17:42 437.568
JAS-2 02 Apr 06:21:52 06:29:02 43° 293° (WNW) 06:35:32 435.910
AO-7 02 Apr 06:23:13 06:31:08 50° 296° (WNW) 06:38:58 29.400- 29.500
PHONESAT 2.4 02 Apr 06:31:42 06:35:13 73° 171° (S) 06:38:44 2401.200-2431.200
CUSAT 1 02 Apr 06:32:30 06:35:28 16° 72° (ENE) 06:39:08 437.405
VERMONT LUNAR 02 Apr 06:53:55 06:57:16 81° 185° (S) 07:00:37 437.305
CUBESAT XI-V 02 Apr 06:56:41 07:01:23 72° 259° (WSW) 07:06:06 437.345
GONETS M04 02 Apr 07:00:15 07:09:09 85° 264° (W) 07:17:59
CUTE-I 02 Apr 07:18:34 07:23:52 64° 101° (E) 07:29:08 437.470
Cubesat XI-IV 02 Apr 07:20:02 07:25:21 67° 101° (E) 07:30:38 437.490
PRISM 02 Apr 07:35:36 07:39:21 30° 264° (W) 07:43:05 437.425
DANDE 02 Apr 07:46:35 07:50:57 59° 79° (E) 07:56:52 436.750
STRAND 1 02 Apr 07:47:41 07:52:35 43° 262° (W) 07:57:28 437.568
PHONESAT 2.4 02 Apr 08:09:59 08:13:30 74° 189° (S) 08:17:02 2401.200-2431.200
CUSAT 1 02 Apr 08:13:37 08:18:19 60° 262° (W) 08:24:33 437.405
AO-7 02 Apr 08:19:43 08:22:09 11° 316° (NW) 08:24:05 29.400- 29.500
BEESAT 3 02 Apr 08:28:09 08:29:29 12° 110° (ESE) 08:31:02 437.485
VERMONT LUNAR 02 Apr 08:31:39 08:34:47 37° 200° (SSW) 08:37:55 437.305
BRITE-PL 02 Apr 08:38:47 08:42:04 22° 94° (E) 08:45:35 437.365/2234.400
CUTE 1.7 + AOD 2 02 Apr 08:43:27 08:45:08 12° 88° (E) 08:47:04 437.475
GONETS M04 02 Apr 08:59:39 09:04:49 16° 282° (WNW) 09:09:27
CUTE-I 02 Apr 08:59:58 09:03:29 18° 297° (WNW) 09:06:48 437.470
Cubesat XI-IV 02 Apr 09:01:33 09:04:58 17° 298° (WNW) 09:08:11 437.490
GOMX 1 02 Apr 09:03:22 09:07:02 26° 95° (E) 09:10:57 467.674
SEEDS 02 Apr 09:05:15 09:08:10 18° 91° (E) 09:11:14 437.485
CINEMA 3 02 Apr 09:18:06 09:20:18 14° 90° (E) 09:22:47 145.822/145.860
COMPASS 1 02 Apr 09:20:48 09:24:06 22° 93° (E) 09:27:28 437.405
HO-68 02 Apr 09:25:01 09:31:50 45° 98° (E) 09:38:41 435.675
BEESAT 2 02 Apr 09:31:15 09:35:12 48° 118° (ESE) 09:39:14 435.950
DANDE 02 Apr 09:31:25 09:34:16 15° 266° (W) 09:37:13 436.750
AIST 2 02 Apr 09:31:53 09:34:36 17° 111° (ESE) 09:37:29 435.215
DELFI C3 02 Apr 09:40:51 09:41:06 10° 88° (E) 09:41:37 145.870
Oscar 11 02 Apr 09:48:04 09:51:03 18° 92° (E) 09:54:09 145.826/435.025
PHONESAT 2.4 02 Apr 09:48:29 09:51:37 29° 204° (SSW) 09:54:43 2401.200-2431.200
UNISAT 6 02 Apr 09:58:08 10:01:24 22° 67° (ENE) 10:04:48 437.425
QB50P2 02 Apr 10:01:57 10:03:40 13° 64° (ENE) 10:05:36 145.880/145.840
BEESAT 3 02 Apr 10:03:00 10:07:04 64° 305° (NW) 10:11:11 437.485
CANX-2 02 Apr 10:03:56 10:08:15 73° 284° (WNW) 10:12:33 2200.000
TIGRISAT 02 Apr 10:06:02 10:09:31 26° 69° (ENE) 10:13:08 435.000
FUNcube-1 02 Apr 10:07:25 10:10:05 16° 91° (E) 10:12:58 145.935
DOVE 4 02 Apr 10:08:46 10:13:12 90° 285° (WNW) 10:17:53 437.250
BRITE-PL 02 Apr 10:16:53 10:20:42 32° 289° (WNW) 10:24:39 437.365/2234.400
CUTE 1.7 + AOD 2 02 Apr 10:17:15 10:21:30 57° 286° (WNW) 10:25:43 437.475
ZACube-1 02 Apr 10:21:22 10:24:53 23° 94° (E) 10:28:31 437.345
UWE-3 02 Apr 10:22:19 10:26:13 29° 95° (E) 10:30:14 435.000/436.395/437.385
AAUSAT CUBESAT 2 02 Apr 10:24:55 10:29:10 79° 284° (WNW) 10:33:23 437.432
POPSAT HIP 1 02 Apr 10:27:58 10:31:15 23° 68° (ENE) 10:34:38 437.405
CUBEBUG 2 02 Apr 10:36:13 10:40:35 50° 99° (E) 10:45:06 437.445
NANOSAT C BR1 02 Apr 10:36:22 10:39:56 28° 70° (ENE) 10:43:35 145.865
ANTELSAT 02 Apr 10:37:50 10:42:02 59° 75° (ENE) 10:46:20 437.575/2403.000
HUMSAT D 02 Apr 10:38:07 10:40:50 17° 91° (E) 10:43:43 437.325/437.525
SEEDS 02 Apr 10:40:11 10:44:11 38° 288° (WNW) 10:48:07 437.485
GOMX 1 02 Apr 10:41:27 10:45:11 28° 289° (WNW) 10:49:02 467.674
AISAT 02 Apr 10:41:48 10:43:04 11° 88° (E) 10:44:37 437.250
POLYITAN 1 02 Apr 10:44:23 10:48:12 35° 71° (ENE) 10:52:04 437.675
CINEMA 3 02 Apr 10:53:28 10:57:54 58° 285° (WNW) 11:02:30 145.822/145.860
UKube-1 02 Apr 10:55:26 10:59:22 34° 97° (E) 11:03:19 .
COMPASS 1 02 Apr 10:56:04 10:59:51 31° 289° (WNW) 11:03:34 437.405
AIST 2 02 Apr 11:08:45 11:12:53 47° 307° (NW) 11:17:04 435.215
BEESAT 2 02 Apr 11:10:34 11:13:38 19° 316° (NW) 11:16:39 435.950
DX 1 02 Apr 11:11:21 11:15:37 55° 100° (E) 11:19:53 434.975-435.025
DELFI C3 02 Apr 11:12:42 11:16:46 62° 286° (WNW) 11:20:48 145.870
HO-68 02 Apr 11:12:58 11:19:27 36° 296° (WNW) 11:25:49 435.675
DUCHIFAT 1 02 Apr 11:17:42 11:21:53 82° 79° (ENE) 11:26:07 145.980
QB50P1 02 Apr 11:18:28 11:22:41 86° 77° (ENE) 11:26:55 145.935-145.965
Oscar 11 02 Apr 11:23:20 11:27:26 39° 288° (WNW) 11:31:29 145.826/435.025
ESTCUBE 1 02 Apr 11:24:47 11:27:47 18° 91° (E) 11:30:55 437.505/2401.250
UNISAT 6 02 Apr 11:34:10 11:38:02 32° 264° (W) 11:41:57 437.425
QB50P2 02 Apr 11:34:59 11:39:09 60° 259° (W) 11:43:20 145.880/145.840
BUGSAT 1 02 Apr 11:38:11 11:42:20 79° 258° (WSW) 11:46:27 437.445
FUNcube-1 02 Apr 11:42:26 11:46:42 47° 287° (WNW) 11:51:02 145.935
TIGRISAT 02 Apr 11:42:33 11:46:14 27° 265° (W) 11:49:55 435.000
YUBILEINY 02 Apr 11:55:52 11:59:13 13° 76° (ENE) 12:03:17 435.215
CUBEBUG 1 02 Apr 11:56:20 12:00:15 33° 97° (E) 12:04:12 437.445
ZACube-1 02 Apr 11:57:19 12:01:18 33° 289° (WNW) 12:05:19 437.345
UWE-3 02 Apr 11:58:55 12:02:41 27° 290° (WNW) 12:06:28 435.000/436.395/437.385
POPSAT HIP 1 02 Apr 12:03:19 12:07:02 29° 264° (W) 12:10:43 437.405
50 SAT 02 Apr 12:07:31 12:11:33 71° 285° (WNW) 12:15:36 437.505
VELOX 1 02 Apr 12:09:08 12:13:33 79° 285° (WNW) 12:17:57 145.980
NANOSAT C BR1 02 Apr 12:12:22 12:15:49 24° 266° (W) 12:19:12 145.865
HUMSAT D 02 Apr 12:12:47 12:16:50 41° 288° (WNW) 12:20:53 437.325/437.525
CUBEBUG 2 02 Apr 12:14:04 12:16:59 17° 294° (WNW) 12:19:47 437.445
AISAT 02 Apr 12:15:50 12:20:12 65° 286° (WNW) 12:24:34 437.250
ANTELSAT 02 Apr 12:17:37 12:19:21 12° 272° (W) 12:20:51 437.575/2403.000
POLYITAN 1 02 Apr 12:21:12 12:24:17 19° 268° (W) 12:27:14 437.675
UKube-1 02 Apr 12:32:01 12:35:20 21° 293° (WNW) 12:38:34 .
DX 1 02 Apr 12:49:05 12:51:28 14° 296° (WNW) 12:53:41 434.975-435.025
O/OREOS (USA 219) 02 Apr 12:49:41 12:53:39 29° 59° (ENE) 12:57:39 437.305
Oscar 19 02 Apr 12:50:51 12:55:07 28° 67° (ENE) 12:59:30 437.125/150
TISAT 1 02 Apr 12:56:58 13:00:46 33° 97° (E) 13:04:36 437.305
ESTCUBE 1 02 Apr 13:00:38 13:04:55 42° 288° (WNW) 13:09:08 437.505/2401.250
SPROUT 02 Apr 13:23:39 13:27:58 84° 102° (ESE) 13:32:15 437.525
ITUPSAT 1 02 Apr 13:28:16 13:29:41 11° 88° (E) 13:31:24 437.325
CUBEBUG 1 02 Apr 13:33:07 13:36:28 22° 292° (WNW) 13:39:42 437.445
Gurwin Techsat 1B 02 Apr 13:42:32 13:46:38 24° 65° (ENE) 13:50:52 435.225
AO-7 02 Apr 13:43:49 13:46:09 12° 44° (NE) 13:48:58 29.400- 29.500
YUBILEINY 02 Apr 13:45:56 13:54:41 74° 94° (E) 14:03:31 435.215
AIST 1 02 Apr 13:55:22 13:55:26 10° 65° (ENE) 13:55:46
ITAMSAT 1 02 Apr 14:05:37 14:10:33 46° 71° (ENE) 14:15:33 435.822/435.867
SWISSCUBE 02 Apr 14:11:41 14:16:06 37° 97° (E) 14:20:30 437.505
BEESAT 02 Apr 14:13:50 14:18:13 35° 97° (E) 14:22:37 436.000
PCSat 02 Apr 14:18:18 14:23:41 77° 118° (ESE) 14:29:08 145.827
HORYU 2 02 Apr 14:24:25 14:25:39 11° 62° (ENE) 14:27:08 437.375
O/OREOS (USA 219) 02 Apr 14:29:11 14:33:01 27° 256° (WSW) 14:36:45 437.305
Oscar 19 02 Apr 14:29:43 14:34:23 35° 264° (W) 14:39:03 437.125/150
TISAT 1 02 Apr 14:33:13 14:36:24 21° 292° (WNW) 14:39:29 437.305
KKS-1 02 Apr 14:46:44 14:48:58 14° 90° (E) 14:51:25 437.445
JAS-2 02 Apr 14:49:33 14:54:26 20° 57° (ENE) 14:59:50 435.910
ITUPSAT 1 02 Apr 15:03:25 15:08:13 73° 286° (WNW) 15:12:59 437.325
STARS 02 Apr 15:07:42 15:10:09 15° 90° (E) 15:12:47 437.465
Gurwin Techsat 1B 02 Apr 15:21:17 15:26:22 45° 262° (W) 15:31:28 435.225
AO-7 02 Apr 15:29:20 15:37:14 52° 65° (ENE) 15:45:11 29.400- 29.500
AIST 1 02 Apr 15:29:27 15:33:44 69° 264° (W) 15:37:58
YUBILEINY 02 Apr 15:45:31 15:52:33 25° 296° (WNW) 15:59:17 435.215
ITAMSAT 1 02 Apr 15:46:18 15:50:20 22° 268° (W) 15:54:13 435.822/435.867
SWISSCUBE 02 Apr 15:49:56 15:53:47 24° 293° (WNW) 15:57:31 437.505
BEESAT 02 Apr 15:52:01 15:55:55 25° 293° (WNW) 15:59:42 436.000
